TimeCST,TemperatureF,Dew PointF,Humidity,Sea Level PressureIn,VisibilityMPH,Wind Direction,Wind SpeedMPH,Gust SpeedMPH,PrecipitationIn,Events,Conditions,WindDirDegrees,DateUTC
12:54 AM,3.0,-0.0,87,30.27,10.0,West,6.9,-,N/A,,Clear,270,2012-12-27 06:54:00
1:54 AM,6.1,3.0,87,30.27,10.0,Calm,Calm,-,N/A,,Clear,0,2012-12-27 07:54:00
2:54 AM,3.0,-0.0,87,30.27,10.0,West,3.5,-,N/A,,Clear,280,2012-12-27 08:54:00
3:54 AM,1.9,-0.9,88,30.27,10.0,NNW,3.5,-,N/A,,Clear,340,2012-12-27 09:54:00
4:54 AM,1.0,-2.9,83,30.27,10.0,West,3.5,-,N/A,,Clear,260,2012-12-27 10:54:00
5:54 AM,-0.0,-4.0,83,30.26,10.0,Calm,Calm,-,N/A,,Clear,0,2012-12-27 11:54:00
6:54 AM,-2.0,-7.1,79,30.26,10.0,Calm,Calm,-,N/A,,Clear,0,2012-12-27 12:54:00
7:54 AM,-0.9,-5.1,83,30.24,9.0,Calm,Calm,-,N/A,,Clear,0,2012-12-27 13:54:00
8:54 AM,1.0,1.0,100,30.26,5.0,Calm,Calm,-,N/A,,Clear,0,2012-12-27 14:54:00
9:54 AM,10.0,7.0,87,30.26,9.0,NNE,4.6,-,N/A,,Clear,30,2012-12-27 15:54:00
10:54 AM,15.1,10.0,80,30.25,10.0,East,5.8,-,N/A,,Clear,80,2012-12-27 16:54:00
11:54 AM,19.0,12.9,77,30.23,10.0,Calm,Calm,-,N/A,,Mostly Cloudy,0,2012-12-27 17:54:00
12:54 PM,19.9,14.0,78,30.22,10.0,NNW,3.5,-,N/A,,Overcast,340,2012-12-27 18:54:00
1:54 PM,21.0,14.0,74,30.17,10.0,NE,8.1,-,N/A,,Overcast,50,2012-12-27 19:54:00
2:54 PM,24.1,17.1,75,30.15,10.0,ENE,10.4,-,N/A,,Overcast,70,2012-12-27 20:54:00
3:54 PM,24.1,17.1,75,30.16,10.0,East,9.2,-,N/A,,Overcast,80,2012-12-27 21:54:00
4:54 PM,23.0,17.1,78,30.14,10.0,East,12.7,-,N/A,,Overcast,80,2012-12-27 22:54:00
5:54 PM,23.0,17.1,78,30.14,10.0,East,11.5,-,N/A,,Overcast,80,2012-12-27 23:54:00
6:54 PM,23.0,17.1,78,30.16,10.0,East,9.2,-,N/A,,Overcast,90,2012-12-28 00:54:00
7:54 PM,23.0,17.1,78,30.16,10.0,East,9.2,-,N/A,,Overcast,100,2012-12-28 01:54:00
8:54 PM,21.9,17.1,82,30.14,10.0,East,6.9,-,N/A,,Overcast,100,2012-12-28 02:54:00
9:30 PM,23.0,17.6,80,30.08,10.0,East,8.1,-,N/A,,Overcast,100,2012-12-28 03:30:00
9:54 PM,23.0,17.1,78,30.13,10.0,East,6.9,-,N/A,,Overcast,100,2012-12-28 03:54:00
10:54 PM,23.0,18.0,81,30.12,10.0,East,6.9,-,N/A,,Overcast,100,2012-12-28 04:54:00
11:54 PM,24.1,19.0,81,30.11,10.0,East,5.8,-,N/A,,Overcast,100,2012-12-28 05:54:00